FW3298 Weather Reports


time (UTC)temp
C
wind
direction
speed
KPH
gust
KPH
rain 1hr
cm
rain 24hr
cm
rain mn
cm
humidity
%
barometer
mb
20260502190247 22 246 6.4 11.3 0.00 0.00 0.00 11 1018.7
20260502185751 21 254 4.8 17.7 0.00 0.00 0.00 12 1018.7
20260502185244 21 272 8.0 17.7 0.00 0.00 0.00 13 1018.8
20260502184748 21 216 6.4 16.1 0.00 0.00 0.00 12 1018.9
20260502184255 21 162 8.0 16.1 0.00 0.00 0.00 12 1018.9
20260502183758 21 262 9.7 16.1 0.00 0.00 0.00 11 1019.0
20260502183246 21 237 4.8 11.3 0.00 0.00 0.00 13 1019.0
20260502182811 21 215 6.4 12.9 0.00 0.00 0.00 13 1019.1
20260502182257 21 138 1.6 17.7 0.00 0.00 0.00 14 1019.0
20260502181742 21 235 8.0 17.7 0.00 0.00 0.00 15 1019.1
20260502181248 20 227 3.2 14.5 0.00 0.00 0.00 18 1019.2
20260502180753 20 285 6.4 14.5 0.00 0.00 0.00 17 1019.2
20260502180300 20 175 3.2 12.9 0.00 0.00 0.00 18 1019.3
20260502170245 17 168 4.8 14.5 0.00 0.00 0.00 20 1019.6
20260502164305 16 262 4.8 9.7 0.00 0.00 0.00 22 1019.7
20260502163747 16 185 4.8 11.3 0.00 0.00 0.00 25 1019.7
20260502163314 16 164 4.8 8.0 0.00 0.00 0.00 25 1019.8
20260502162817 15 147 1.6 6.4 0.00 0.00 0.00 26 1019.7
20260502162243 15 19 3.2 6.4 0.00 0.00 0.00 30 1019.7
20260502161747 14 330 3.2 8.0 0.00 0.00 0.00 30 1019.8
20260502161254 13 31 3.2 8.0 0.00 0.00 0.00 31 1019.8
20260502160757 13 352 3.2 6.4 0.00 0.00 0.00 31 1019.8
20260502160244 13 199 1.6 4.8 0.00 0.00 0.00 32 1019.8
20260502152248 10 14 3.2 6.4 0.00 0.00 0.00 40 1020.1
20260502151752 9 341 4.8 8.0 0.00 0.00 0.00 40 1020.0
20260502151320 9 39 4.8 8.0 0.00 0.00 0.00 43 1019.9
20260502150742 8 22 4.8 8.0 0.00 0.00 0.00 44 1020.0
20260502150249 8 6 4.8 6.4 0.00 0.00 0.00 46 1020.0
20260502130259 -2 16 0.0 3.2 0.00 0.00 0.00 65 1019.7
20260502123804 -2 49 0.0 3.2 0.00 0.00 0.00 64 1019.8
20260502123249 -2 49 3.2 3.2 0.00 0.00 0.00 64 1019.7
20260502122752 -2 49 0.0 1.6 0.00 0.00 0.00 64 1019.9
20260502122259 -2 49 1.6 1.6 0.00 0.00 0.00 63 1019.7
20260502121742 -2 49 0.0 0.0 0.00 0.00 0.00 63 1019.8
20260502121249 -2 49 0.0 0.0 0.00 0.00 0.00 63 1019.8
20260502120753 -2 49 0.0 0.0 0.00 0.00 0.00 63 1019.8
20260502120301 -2 49 0.0 0.0 0.00 0.00 0.00 63 1019.8
20260502115745 -2 49 0.0 0.0 0.00 0.00 0.00 63 1019.8
20260502115252 -2 49 0.0 1.6 0.00 0.00 0.00 63 1019.8
20260502114816 -2 49 0.0 1.6 0.00 0.00 0.00 63 1019.9
20260502114302 -2 49 1.6 1.6 0.00 0.00 0.00 63 1019.8
20260502113746 -2 49 0.0 1.6 0.00 0.00 0.00 63 1019.8
20260502113253 -2 49 0.0 1.6 0.00 0.00 0.00 63 1019.8
20260502112757 -2 49 0.0 4.8 0.00 0.00 0.00 62 1019.8
20260502112305 -2 49 1.6 4.8 0.00 0.00 0.00 62 1019.9
20260502111747 -2 49 3.2 4.8 0.00 0.00 0.00 62 1019.8
20260502111254 -2 49 1.6 3.2 0.00 0.00 0.00 61 1019.9
20260502110758 -1 49 0.0 1.6 0.00 0.00 0.00 60 1020.0
20260502110244 -1 49 0.0 1.6 0.00 0.00 0.00 60 1019.8
20260502105747 -1 49 1.6 1.6 0.00 0.00 0.00 60 1019.8
20260502105254 -1 49 0.0 0.0 0.00 0.00 0.00 60 1019.8
20260502104757 -1 49 0.0 3.2 0.00 0.00 0.00 60 1020.0
20260502104304 -1 49 0.0 3.2 0.00 0.00 0.00 60 1019.8
20260502103748 -1 49 0.0 1.6 0.00 0.00 0.00 60 1019.8
20260502103255 -1 49 0.0 3.2 0.00 0.00 0.00 60 1019.9
20260502102818 -1 49 1.6 3.2 0.00 0.00 0.00 59 1019.8
20260502102244 -1 49 0.0 3.2 0.00 0.00 0.00 59 1020.2
20260502101749 -1 49 0.0 3.2 0.00 0.00 0.00 59 1019.9
20260502101256 -1 49 1.6 3.2 0.00 0.00 0.00 59 1019.8
20260502100759 -1 49 0.0 0.0 0.00 0.00 0.00 58 1019.9
20260502100246 -1 49 0.0 3.2 0.00 0.00 0.00 58 1019.8
20260502091319 0 49 1.6 3.2 0.00 0.00 0.00 55 1019.5
20260502090801 0 49 0.0 1.6 0.00 0.00 0.00 55 1019.6
20260502090246 0 49 0.0 1.6 0.00 0.00 0.00 55 1019.6
20260502071251 3 49 0.0 1.6 0.00 0.00 0.00 46 1019.6
20260502070755 3 49 0.0 4.8 0.00 0.00 0.00 45 1019.5
20260502070301 3 49 1.6 4.8 0.00 0.00 0.00 45 1019.5
20260502065805 4 49 1.6 3.2 0.00 0.00 0.00 43 1019.5
20260502065310 4 49 0.0 1.6 0.00 0.00 0.00 43 1019.6
20260502064752 5 49 0.0 3.2 0.00 0.00 0.00 42 1019.5
20260502064258 5 49 0.0 3.2 0.00 0.00 0.00 41 1019.5
20260502063744 5 49 1.6 3.2 0.00 0.00 0.00 41 1019.5
20260502063252 5 49 1.6 3.2 0.00 0.00 0.00 40 1019.4
20260502062757 5 49 0.0 4.8 0.00 0.00 0.00 40 1019.3
20260502062244 6 48 1.6 6.4 0.00 0.00 0.00 38 1019.2
20260502061748 6 110 1.6 6.4 0.00 0.00 0.00 38 1019.2
20260502061255 5 128 1.6 6.4 0.00 0.00 0.00 38 1019.1
20260502060738 5 135 1.6 9.7 0.00 0.00 0.00 38 1019.1
20260502060245 5 144 3.2 9.7 0.00 0.00 0.00 39 1019.1
20260502055748 5 151 3.2 14.5 0.00 0.00 0.00 40 1019.1
20260502055256 5 140 3.2 14.5 0.00 0.00 0.00 42 1019.1
20260502054758 5 209 3.2 6.4 0.00 0.00 0.00 43 1019.0
20260502054244 5 175 1.6 4.8 0.00 0.00 0.00 42 1019.1
20260502053748 5 151 3.2 4.8 0.00 0.00 0.00 42 1018.9
20260502053255 5 151 1.6 4.8 0.00 0.00 0.00 43 1019.1
20260502052739 5 156 1.6 6.4 0.00 0.00 0.00 43 1019.0
20260502052306 5 175 3.2 6.4 0.00 0.00 0.00 42 1019.0
20260502051749 5 153 3.2 6.4 0.00 0.00 0.00 42 1019.0
20260502051256 5 185 3.2 6.4 0.00 0.00 0.00 42 1019.0
20260502050744 5 159 3.2 4.8 0.00 0.00 0.00 41 1019.0
20260502050311 5 126 1.6 3.2 0.00 0.00 0.00 41 1019.0
20260502045755 5 126 1.6 3.2 0.00 0.00 0.00 40 1018.9
20260502045243 5 126 0.0 3.2 0.00 0.00 0.00 40 1019.0
20260502044745 6 126 1.6 3.2 0.00 0.00 0.00 39 1018.9
20260502044254 6 126 1.6 4.8 0.00 0.00 0.00 40 1019.0
20260502043738 6 126 1.6 4.8 0.00 0.00 0.00 39 1019.0
20260502043245 6 126 1.6 3.2 0.00 0.00 0.00 39 1018.9
20260502042749 6 126 1.6 1.6 0.00 0.00 0.00 39 1018.9
20260502042256 6 126 0.0 1.6 0.00 0.00 0.00 39 1018.9
20260502041740 6 126 0.0 1.6 0.00 0.00 0.00 39 1018.9
20260502041248 6 126 0.0 3.2 0.00 0.00 0.00 37 1018.9
20260502040753 7 126 1.6 3.2 0.00 0.00 0.00 37 1018.9
20260502040320 7 126 1.6 3.2 0.00 0.00 0.00 36 1018.9
20260502035803 7 126 0.0 3.2 0.00 0.00 0.00 36 1018.8
20260502035249 7 126 0.0 3.2 0.00 0.00 0.00 34 1018.8
20260502034754 7 126 0.0 4.8 0.00 0.00 0.00 35 1018.8
20260502034302 8 126 0.0 4.8 0.00 0.00 0.00 33 1018.8
20260502033744 8 126 0.0 3.2 0.00 0.00 0.00 32 1018.6
20260502033249 8 126 1.6 3.2 0.00 0.00 0.00 32 1018.6
20260502032753 8 126 1.6 4.8 0.00 0.00 0.00 31 1018.6
20260502032301 9 126 3.2 4.8 0.00 0.00 0.00 29 1018.6
20260502031745 9 185 0.0 3.2 0.00 0.00 0.00 30 1018.5
20260502031250 10 185 1.6 3.2 0.00 0.00 0.00 26 1018.5
20260502030754 10 185 1.6 1.6 0.00 0.00 0.00 24 1018.5
20260502030321 10 185 0.0 1.6 0.00 0.00 0.00 24 1018.4
20260502025741 11 185 0.0 1.6 0.00 0.00 0.00 21 1018.4
20260502025247 11 185 0.0 1.6 0.00 0.00 0.00 23 1018.3
20260502024751 12 185 0.0 0.0 0.00 0.00 0.00 24 1018.2
20260502024256 12 185 0.0 0.0 0.00 0.00 0.00 24 1018.2
20260502023739 12 185 0.0 0.0 0.00 0.00 0.00 20 1018.2
20260502023246 13 185 0.0 0.0 0.00 0.00 0.00 21 1018.1
20260502022750 14 185 0.0 0.0 0.00 0.00 0.00 19 1018.1
20260502022256 15 185 0.0 1.6 0.00 0.00 0.00 18 1018.1
20260502021740 15 185 0.0 3.2 0.00 0.00 0.00 14 1018.0
20260502021245 15 185 1.6 3.2 0.00 0.00 0.00 14 1018.1
20260502020749 16 185 1.6 3.2 0.00 0.00 0.00 16 1018.1
20260502020257 16 185 0.0 1.6 0.00 0.00 0.00 13 1018.1
20260502015740 17 185 0.0 3.2 0.00 0.00 0.00 14 1018.1
20260502015247 17 185 0.0 3.2 0.00 0.00 0.00 12 1018.1
20260502014811 17 185 1.6 3.2 0.00 0.00 0.00 11 1018.1
20260502014318 17 185 1.6 3.2 0.00 0.00 0.00 12 1018.1
20260502013740 17 185 0.0 3.2 0.00 0.00 0.00 10 1018.1
20260502013246 18 225 0.0 6.4 0.00 0.00 0.00 8 1018.0
20260502012749 18 216 1.6 6.4 0.00 0.00 0.00 8 1018.1
20260502012316 18 229 1.6 3.2 0.00 0.00 0.00 8 1018.1
20260502011740 18 229 1.6 4.8 0.00 0.00 0.00 7 1018.0
20260502011246 18 194 1.6 6.4 0.00 0.00 0.00 5 1018.1
20260502010810 18 248 3.2 6.4 0.00 0.00 0.00 5 1018.1
20260502010259 19 271 3.2 6.4 0.00 0.00 0.00 5 1018.1
20260502005742 19 125 1.6 6.4 0.00 0.00 0.00 4 1018.1
20260502005250 19 324 1.6 6.4 0.00 0.00 0.00 4 1018.1
20260502004754 19 193 1.6 4.8 0.00 0.00 0.00 3 1018.2
20260502004300 19 265 1.6 4.8 0.00 0.00 0.00 4 1018.2
20260502003743 19 265 1.6 6.4 0.00 0.00 0.00 5 1018.2
20260502003251 19 227 3.2 6.4 0.00 0.00 0.00 7 1018.2
20260502002755 19 253 1.6 9.7 0.00 0.00 0.00 6 1018.1
20260502002305 19 175 4.8 9.7 0.00 0.00 0.00 7 1018.2
20260502001744 20 122 4.8 9.7 0.00 0.00 0.00 6 1018.2
20260502001250 20 189 1.6 9.7 0.00 0.00 0.00 9 1018.3
20260502000754 20 260 1.6 6.4 0.00 0.00 0.00 7 1018.2
20260502000303 20 130 3.2 8.0 0.00 0.00 0.00 6 1018.3
20260501235806 20 345 1.6 8.0 0.00 0.00 0.00 4 1018.2
20260501235251 20 299 3.2 6.4 0.00 0.00 0.00 4 1018.3
20260501234755 20 266 1.6 6.4 0.00 0.00 0.00 4 1018.3
20260501234242 20 235 3.2 8.0 0.00 0.00 0.00 5 1018.3
20260501233746 20 244 4.8 8.0 0.00 0.00 0.00 3 1018.3
20260501233253 20 266 4.8 9.7 0.00 0.00 0.00 2 1018.4
20260501232757 20 148 1.6 12.9 0.00 0.00 0.00 3 1018.3
20260501232245 20 220 4.8 12.9 0.00 0.00 0.00 4 1018.3
20260501231749 20 285 1.6 6.4 0.00 0.00 0.00 4 1018.3
20260501231256 20 328 3.2 12.9 0.00 0.00 0.00 5 1018.5
20260501230741 20 201 8.0 12.9 0.00 0.00 0.00 7 1018.5
20260501230247 20 252 4.8 11.3 0.00 0.00 0.00 6 1018.5
20260501225751 20 279 3.2 6.4 0.00 0.00 0.00 6 1018.5
20260501225258 20 216 3.2 9.7 0.00 0.00 0.00 7 1018.5
20260501224802 20 271 3.2 9.7 0.00 0.00 0.00 8 1018.6
20260501224248 20 269 3.2 14.5 0.00 0.00 0.00 5 1018.6
20260501223752 20 275 4.8 12.9 0.00 0.00 0.00 5 1018.6
20260501223300 20 175 3.2 14.5 0.00 0.00 0.00 9 1018.7
20260501222804 20 325 4.8 14.5 0.00 0.00 0.00 8 1018.8
20260501222310 20 189 6.4 12.9 0.00 0.00 0.00 8 1018.8
20260501221752 20 234 6.4 12.9 0.00 0.00 0.00 7 1018.9
20260501221300 20 216 1.6 6.4 0.00 0.00 0.00 8 1019.0
20260501220744 20 79 3.2 4.8 0.00 0.00 0.00 8 1019.1
20260501220311 20 38 3.2 11.3 0.00 0.00 0.00 6 1019.1
20260501215754 20 76 3.2 11.3 0.00 0.00 0.00 8 1019.2
20260501215305 20 159 4.8 6.4 0.00 0.00 0.00 8 1019.3
20260501214744 20 74 3.2 6.4 0.00 0.00 0.00 9 1019.3
20260501214251 20 261 1.6 6.4 0.00 0.00 0.00 4 1019.4
20260501213815 20 254 3.2 6.4 0.00 0.00 0.00 6 1019.5
20260501213259 20 131 3.2 9.7 0.00 0.00 0.00 7 1019.5
20260501212744 20 150 3.2 12.9 0.00 0.00 0.00 6 1019.6
20260501212250 20 266 4.8 12.9 0.00 0.00 0.00 8 1019.6
20260501211753 20 214 4.8 9.7 0.00 0.00 0.00 10 1019.6
20260501211300 19 298 3.2 11.3 0.00 0.00 0.00 9 1019.6
20260501210745 19 162 3.2 9.7 0.00 0.00 0.00 8 1019.6
20260501210251 18 236 4.8 11.3 0.00 0.00 0.00 9 1019.7
20260501205755 18 280 6.4 11.3 0.00 0.00 0.00 7 1019.7
20260501205242 18 30 6.4 12.9 0.00 0.00 0.00 9 1019.8
20260501204746 18 5 8.0 12.9 0.00 0.00 0.00 10 1019.8
20260501204253 18 358 8.0 16.1 0.00 0.00 0.00 9 1019.9
20260501203817 18 29 3.2 9.7 0.00 0.00 0.00 13 1019.9
20260501203304 18 39 4.8 11.3 0.00 0.00 0.00 11 1020.0
20260501202748 18 39 4.8 14.5 0.00 0.00 0.00 12 1020.1
20260501202255 18 21 8.0 14.5 0.00 0.00 0.00 10 1020.0
20260501201739 18 35 6.4 14.5 0.00 0.00 0.00 11 1020.1
20260501201246 18 4 4.8 14.5 0.00 0.00 0.00 11 1020.1
20260501200750 18 330 8.0 12.9 0.00 0.00 0.00 11 1020.1
20260501200258 18 359 6.4 12.9 0.00 0.00 0.00 13 1020.3
20260501195740 18 283 6.4 9.7 0.00 0.00 0.00 13 1020.2
20260501195246 18 331 3.2 12.9 0.00 0.00 0.00 14 1020.2
20260501194809 18 345 6.4 14.5 0.00 0.00 0.00 12 1020.3
20260501194315 18 208 6.4 14.5 0.00 0.00 0.00 12 1020.3
20260501193756 18 328 4.8 9.7 0.00 0.00 0.00 13 1020.3
20260501193301 18 249 6.4 8.0 0.00 0.00 0.00 12 1020.3
20260501192744 18 294 4.8 8.0 0.00 0.00 0.00 14 1020.3
20260501192251 18 345 3.2 8.0 0.00 0.00 0.00 13 1020.2
20260501191755 18 358 6.4 8.0 0.00 0.00 0.00 12 1020.3
20260501191300 18 293 4.8 11.3 0.00 0.00 0.00 14 1020.4
20260501190744 17 56 1.6 9.7 0.00 0.00 0.00 15 1020.4